Regional Weather Roundup
Issued by NWS

Home | Current Version | Previous Version | Graphics & Text | Print | Product List | Glossary On
Versions: 1 2 3 4 5 6 7 8 9 10 11 12 13 14 15 16 17 18 19 20 21 22 23 24 25 26 27 28 29 30 31 32 33 34 35 36 37 38 39 40 41 42 43 44 45 46 47 48 49 50
000
ASUS43 KBIS 311910
RWRND

NORTH DAKOTA REGIONAL WEATHER ROUNDUP
NATIONAL WEATHER SERVICE BISMARCK ND
200 PM CDT FRI JUL 31 2015

NOTE: "FAIR" INDICATES FEW OR NO CLOUDS BELOW 12,000 FEET WITH NO
SIGNIFICANT WEATHER AND/OR OBSTRUCTIONS TO VISIBILITY.


NDZ001>003-009>011-017-312000-
NORTHWEST NORTH DAKOTA

CITY           SKY/WX    TMP DP  RH WIND       PRES   REMARKS
WILLISTON      SUNNY     85  47  26 VRB6      30.13F
MINOT          SUNNY     81  50  33 NW10G21   30.10S
MINOT AFB      SUNNY     83  50  32 NW13      30.09F
$$

NDZ018>021-031>035-040>046-312000-
SOUTHWEST NORTH DAKOTA

CITY           SKY/WX    TMP DP  RH WIND       PRES   REMARKS
BISMARCK       SUNNY     88  52  29 NW9G20    30.10F
DICKINSON      SUNNY     86  41  20 N7        30.14F
GARRISON         N/A     80  56  43 NW12      30.11F
HETTINGER ARPT SUNNY     88  39  17 NW6       30.18F
$$

NDZ004>008-012>016-024-026-027-054-312000-
NORTHEAST NORTH DAKOTA

CITY           SKY/WX    TMP DP  RH WIND       PRES   REMARKS
GRAND FORKS    MOSUNNY   80  49  33 NW15G30   30.03F
GRND FRKS AFB  SUNNY     80  50  36 NW16G22   30.04F
DEVILS LAKE    SUNNY     79  52  38 W14G21    30.07F
$$

NDZ022-023-025-028>030-036>039-047>053-312000-
SOUTHEAST NORTH DAKOTA

CITY           SKY/WX    TMP DP  RH WIND       PRES   REMARKS
FARGO          SUNNY     82  51  34 NW16      30.06F
JAMESTOWN      SUNNY     80  52  37 W9        30.09F
$$




USA.gov is the U.S. government's official web portal to all federal, state and local government web resources and services.